OK,42,43,962,42,2014-10-01T01:40:00,0,28072732,190206
OK,42,43,962,42,2014-10-01T01:45:00,0,28073179,190206
OK,42,43,962,42,2014-10-01T01:50:00,0,28073627,190206
OK,42,43,962,42,2014-10-01T01:55:00,0,28073945,190206
OK,42,43,962,42,2014-10-01T02:00:00,0,28074394,190206
OK,42,43,962,42,2014-10-01T02:05:00,0,28074835,190206
OK,42,43,962,42,2014-10-01T02:10:00,0,28075283,190206
OK,42,43,962,42,2014-10-01T02:15:00,0,28075732,190206
OK,42,43,962,42,2014-10-01T02:20:00,0,28076115,190206
OK,42,43,962,42,2014-10-01T02:25:00,0,28076564,190206
OK,42,43,962,42,2014-10-01T02:30:00,0,28077013,190206
OK,42,43,962,42,2014-10-01T02:35:00,0,28077462,190206
OK,42,43,962,42,2014-10-01T02:40:00,0,28077865,190206
OK,42,43,962,42,2014-10-01T02:45:00,0,28078314,190206
OK,42,43,962,42,2014-10-01T02:50:00,0,28078759,190206
OK,42,43,962,42,2014-10-01T02:55:00,0,28079208,190206
OK,42,43,962,42,2014-10-01T03:00:00,0,28079650,190206
OK,42,43,962,42,2014-10-01T03:05:00,0,28080099,190206
OK,42,43,962,42,2014-10-01T03:10:00,0,28080433,190206
OK,42,43,962,42,2014-10-01T03:15:00,0,28080882,190206
OK,42,43,962,42,2014-10-01T03:20:00,0,28081331,190206
OK,42,43,962,42,2014-10-01T03:25:00,0,28081778,190206
OK,19,96,962,19,2014-10-01T03:30:00,1,28082227,190206
OK,19,96,962,19,2014-10-01T03:35:00,0,28082660,190206
OK,41,44,962,41,2014-10-01T03:40:00,1,28083092,190206
OK,41,44,962,41,2014-10-01T03:45:00,1,28083541,190206
OK,41,44,962,41,2014-10-01T03:50:00,0,28083990,190206
OK,41,44,962,41,2014-10-01T03:55:00,0,28084431,190206
OK,41,44,962,41,2014-10-01T04:00:00,0,28084856,190206
OK,41,44,962,41,2014-10-01T04:05:00,0,28085305,190206
OK,41,44,962,41,2014-10-01T04:10:00,0,28085750,190206
OK,41,44,962,41,2014-10-01T04:15:00,0,28086199,190206
OK,23,79,962,23,2014-10-01T04:20:00,3,28086641,190206
OK,23,79,962,23,2014-10-01T04:25:00,3,28087090,190206
OK,22,83,962,22,2014-10-01T04:30:00,1,28087535,190206
OK,22,83,962,22,2014-10-01T04:35:00,1,28087984,190206
OK,22,83,962,22,2014-10-01T04:40:00,0,28088408,190206
OK,22,83,962,22,2014-10-01T04:45:00,0,28088857,190206
OK,22,83,962,22,2014-10-01T04:50:00,0,28089287,190206
OK,22,83,962,22,2014-10-01T04:55:00,0,28089736,190206
OK,63,29,962,63,2014-10-01T05:00:00,1,28090185,190206
OK,63,29,962,63,2014-10-01T05:05:00,3,28090531,190206
OK,40,45,962,40,2014-10-01T05:10:00,2,28090978,190206
OK,41,44,962,41,2014-10-01T05:15:00,1,28091427,190206
OK,58,31,962,58,2014-10-01T05:20:00,3,28091844,190206
OK,27,67,962,27,2014-10-01T05:25:00,7,28092293,190206
OK,24,76,962,24,2014-10-01T05:30:00,4,28092737,190206
OK,63,29,962,63,2014-10-01T05:35:00,1,28093178,190206
OK,39,46,962,39,2014-10-01T05:40:00,2,28093609,190206
OK,128,14,962,128,2014-10-01T05:45:00,6,28094058,190206
OK,187,9,962,187,2014-10-01T05:50:00,3,28094469,190206
OK,187,9,962,187,2014-10-01T05:55:00,0,28094914,190206
OK,25,73,962,25,2014-10-01T06:00:00,1,28095361,190206
OK,25,73,962,25,2014-10-01T06:05:00,3,28095810,190206
OK,61,30,962,61,2014-10-01T06:10:00,5,28096223,190206
OK,110,16,962,110,2014-10-01T06:15:00,7,28096672,190206
OK,113,16,962,113,2014-10-01T06:20:00,4,28097106,190206
OK,157,11,962,157,2014-10-01T06:25:00,2,28097555,190206
OK,59,31,962,59,2014-10-01T06:30:00,3,28098004,190206
OK,57,32,962,57,2014-10-01T06:35:00,4,28098441,190206
OK,56,32,962,56,2014-10-01T06:40:00,3,28098885,190206
OK,75,24,962,75,2014-10-01T06:45:00,4,28099333,190206
OK,62,29,962,62,2014-10-01T06:50:00,5,28099676,190206
OK,59,31,962,59,2014-10-01T06:55:00,2,28100125,190206
OK,59,31,962,59,2014-10-01T07:00:00,0,28100432,190206
OK,40,45,962,40,2014-10-01T07:05:00,2,28100881,190206
OK,22,83,962,22,2014-10-01T07:10:00,1,28101252,190206
OK,61,30,962,61,2014-10-01T07:15:00,4,28101701,190206
OK,44,41,962,44,2014-10-01T07:20:00,5,28102137,190206
OK,44,41,962,44,2014-10-01T07:25:00,4,28102586,190206
OK,62,29,962,62,2014-10-01T07:30:00,1,28103014,190206
OK,62,29,962,62,2014-10-01T07:35:00,0,28103460,190206
OK,47,38,962,47,2014-10-01T07:40:00,1,28103905,190206
OK,58,31,962,58,2014-10-01T07:45:00,3,28104350,190206
OK,93,19,962,93,2014-10-01T07:50:00,2,28104791,190206
OK,23,79,962,23,2014-10-01T07:55:00,5,28105236,190206
OK,23,79,962,23,2014-10-01T08:00:00,5,28105676,190206
OK,63,29,962,63,2014-10-01T08:05:00,4,28106125,190206
OK,55,33,962,55,2014-10-01T08:10:00,5,28106562,190206
OK,44,41,962,44,2014-10-01T08:15:00,2,28106968,190206
OK,37,49,962,37,2014-10-01T08:20:00,2,28107400,190206
OK,25,73,962,25,2014-10-01T08:25:00,1,28107849,190206
OK,53,34,962,53,2014-10-01T08:30:00,4,28108288,190206
OK,54,33,962,54,2014-10-01T08:35:00,7,28108737,190206
OK,55,33,962,55,2014-10-01T08:40:00,3,28109165,190206
OK,57,32,962,57,2014-10-01T08:45:00,1,28109614,190206
OK,53,34,962,53,2014-10-01T08:50:00,4,28109957,190206
OK,57,32,962,57,2014-10-01T08:55:00,6,28110406,190206
OK,57,32,962,57,2014-10-01T09:00:00,4,28110829,190206
OK,47,38,962,47,2014-10-01T09:05:00,3,28111278,190206
OK,63,29,962,63,2014-10-01T09:10:00,5,28111707,190206
OK,63,29,962,63,2014-10-01T09:15:00,4,28112156,190206
OK,44,41,962,44,2014-10-01T09:20:00,0,28112497,190206
OK,64,28,962,64,2014-10-01T09:25:00,1,28112946,190206
OK,45,40,962,45,2014-10-01T09:30:00,3,28113370,190206
OK,35,52,962,35,2014-10-01T09:35:00,2,28113819,190206
OK,45,40,962,45,2014-10-01T09:40:00,0,28114251,190206
OK,45,40,962,45,2014-10-01T09:45:00,0,28114700,190206
OK,28,65,962,28,2014-10-01T09:50:00,2,28115054,190206
OK,23,79,962,23,2014-10-01T09:55:00,3,28115503,190206
OK,23,79,962,23,2014-10-01T10:00:00,3,28115915,190206
OK,63,29,962,63,2014-10-01T10:05:00,3,28116364,190206
OK,60,30,962,60,2014-10-01T10:10:00,3,28116772,190206
OK,48,38,962,48,2014-10-01T10:15:00,4,28117221,190206
OK,44,41,962,44,2014-10-01T10:20:00,3,28117646,190206
OK,27,67,962,27,2014-10-01T10:25:00,2,28118095,190206
OK,39,46,962,39,2014-10-01T10:30:00,3,28118540,190206
OK,38,48,962,38,2014-10-01T10:35:00,2,28118987,190206
OK,38,48,962,38,2014-10-01T10:40:00,1,28119431,190206
OK,48,38,962,48,2014-10-01T10:45:00,2,28119879,190206
OK,51,35,962,51,2014-10-01T10:50:00,2,28120327,190206
OK,80,22,962,80,2014-10-01T10:55:00,3,28120776,190206
OK,103,17,962,103,2014-10-01T11:00:00,6,28121159,190206
OK,102,17,962,102,2014-10-01T11:05:00,7,28121608,190206
OK,41,44,962,41,2014-10-01T11:10:00,4,28122046,190206
OK,60,30,962,60,2014-10-01T11:15:00,5,28122495,190206
OK,62,29,962,62,2014-10-01T11:20:00,4,28122936,190206
OK,56,32,962,56,2014-10-01T11:25:00,1,28123385,190206
OK,56,32,962,56,2014-10-01T11:30:00,1,28123817,190206
OK,56,32,962,56,2014-10-01T11:35:00,0,28124266,190206
OK,56,32,962,56,2014-10-01T11:40:00,0,28124668,190206
OK,39,46,962,39,2014-10-01T11:45:00,2,28125117,190206
OK,47,38,962,47,2014-10-01T11:50:00,4,28125546,190206
OK,48,38,962,48,2014-10-01T11:55:00,2,28125995,190206
OK,65,28,962,65,2014-10-01T12:00:00,2,28126347,190206
OK,47,38,962,47,2014-10-01T12:05:00,5,28126796,190206
OK,50,36,962,50,2014-10-01T12:10:00,6,28127245,190206
OK,56,32,962,56,2014-10-01T12:15:00,5,28127694,190206
OK,52,35,962,52,2014-10-01T12:20:00,6,28128122,190206
OK,42,43,962,42,2014-10-01T12:25:00,5,28128571,190206
OK,42,43,962,42,2014-10-01T12:30:00,1,28129006,190206
OK,62,29,962,62,2014-10-01T12:35:00,7,28129455,190206
OK,55,33,962,55,2014-10-01T12:40:00,5,28129889,190206
OK,55,33,962,55,2014-10-01T12:45:00,1,28130338,190206
OK,106,17,962,106,2014-10-01T12:50:00,2,28130766,190206
OK,61,30,962,61,2014-10-01T12:55:00,3,28131215,190206
OK,40,45,962,40,2014-10-01T13:00:00,1,28131652,190206
OK,40,45,962,40,2014-10-01T13:05:00,0,28132101,190206
OK,51,35,962,51,2014-10-01T13:10:00,1,28132539,190206
OK,51,35,962,51,2014-10-01T13:15:00,1,28132986,190206
OK,72,25,962,72,2014-10-01T13:20:00,2,28133424,190206
OK,59,31,962,59,2014-10-01T13:25:00,4,28133873,190206
OK,64,28,962,64,2014-10-01T13:30:00,2,28134312,190206
OK,89,20,962,89,2014-10-01T13:35:00,2,28134761,190206
OK,89,20,962,89,2014-10-01T13:40:00,2,28135180,190206
OK,82,22,962,82,2014-10-01T13:45:00,2,28135629,190206
OK,82,22,962,82,2014-10-01T13:50:00,2,28136066,190206
OK,74,24,962,74,2014-10-01T13:55:00,2,28136515,190206
OK,58,31,962,58,2014-10-01T14:00:00,5,28136955,190206
OK,57,32,962,57,2014-10-01T14:05:00,3,28137404,190206
OK,37,49,962,37,2014-10-01T14:10:00,0,28137838,190206
OK,37,49,962,37,2014-10-01T14:15:00,0,28138287,190206
OK,31,59,962,31,2014-10-01T14:20:00,2,28138715,190206
OK,52,35,962,52,2014-10-01T14:25:00,5,28139164,190206
OK,58,31,962,58,2014-10-01T14:30:00,3,28139575,190206
OK,82,22,962,82,2014-10-01T14:35:00,2,28140024,190206
OK,115,15,962,115,2014-10-01T14:40:00,1,28140466,190206
OK,33,55,962,33,2014-10-01T14:45:00,4,28140915,190206
OK,24,76,962,24,2014-10-01T14:50:00,6,28141341,190206
OK,22,83,962,22,2014-10-01T14:55:00,1,28141790,190206
OK,22,83,962,22,2014-10-01T15:00:00,0,28142218,190206
OK,72,25,962,72,2014-10-01T15:05:00,1,28142667,190206
OK,61,30,962,61,2014-10-01T15:10:00,2,28143094,190206
OK,58,31,962,58,2014-10-01T15:15:00,4,28143543,190206
OK,62,29,962,62,2014-10-01T15:20:00,4,28143991,190206
OK,75,24,962,75,2014-10-01T15:25:00,2,28144440,190206
OK,59,31,962,59,2014-10-01T15:30:00,4,28144861,190206
OK,25,73,962,25,2014-10-01T15:35:00,6,28145275,190206
OK,39,46,962,39,2014-10-01T15:40:00,4,28145724,190206
OK,53,34,962,53,2014-10-01T15:45:00,5,28146173,190206
OK,44,41,962,44,2014-10-01T15:50:00,3,28146622,190206
OK,38,48,962,38,2014-10-01T15:55:00,1,28147030,190206
OK,39,46,962,39,2014-10-01T16:00:00,2,28147474,190206
OK,42,43,962,42,2014-10-01T16:05:00,2,28147923,190206
OK,45,40,962,45,2014-10-01T16:10:00,1,28148324,190206
OK,45,40,962,45,2014-10-01T16:15:00,0,28148773,190206
OK,47,38,962,47,2014-10-01T16:20:00,1,28149212,190206
OK,48,38,962,48,2014-10-01T16:25:00,4,28149661,190206
OK,47,38,962,47,2014-10-01T16:30:00,4,28150087,190206
OK,51,35,962,51,2014-10-01T16:35:00,3,28150536,190206
OK,45,40,962,45,2014-10-01T16:40:00,6,28150954,190206
OK,50,36,962,50,2014-10-01T16:45:00,5,28151403,190206
OK,50,36,962,50,2014-10-01T16:50:00,3,28151852,190206
OK,55,33,962,55,2014-10-01T17:00:00,1,28152301,190206
OK,55,33,962,55,2014-10-01T17:05:00,1,28152747,190206
OK,55,33,962,55,2014-10-01T17:10:00,0,28153194,190206
OK,55,33,962,55,2014-10-01T17:15:00,0,28153643,190206
OK,55,33,962,55,2014-10-01T17:20:00,0,28154053,190206
OK,55,33,962,55,2014-10-01T17:25:00,0,28154502,190206
OK,44,41,962,44,2014-10-01T17:30:00,1,28154944,190206
OK,44,41,962,44,2014-10-01T17:35:00,3,28155392,190206
OK,46,39,962,46,2014-10-01T17:40:00,1,28155810,190206
OK,46,39,962,46,2014-10-01T17:45:00,0,28156259,190206
OK,46,39,962,46,2014-10-01T17:50:00,0,28156708,190206
OK,46,39,962,46,2014-10-01T17:55:00,0,28157146,190206
OK,46,39,962,46,2014-10-01T18:00:00,0,28157576,190206
OK,49,37,962,49,2014-10-01T18:05:00,1,28158024,190206
OK,59,31,962,59,2014-10-01T18:10:00,1,28158468,190206
OK,59,31,962,59,2014-10-01T18:15:00,1,28158914,190206
OK,59,31,962,59,2014-10-01T18:20:00,0,28159360,190206
OK,59,31,962,59,2014-10-01T18:25:00,0,28159695,190206
OK,59,31,962,59,2014-10-01T18:30:00,0,28160144,190206
OK,59,31,962,59,2014-10-01T18:35:00,0,28160593,190206
OK,59,31,962,59,2014-10-01T18:40:00,0,28161031,190206
OK,41,44,962,41,2014-10-01T18:45:00,1,28161480,190206
OK,42,43,962,42,2014-10-01T18:50:00,2,28161897,190206
OK,43,42,962,43,2014-10-01T18:55:00,0,28162346,190206
OK,43,42,962,43,2014-10-01T19:00:00,0,28162740,190206
OK,21,87,962,21,2014-10-01T19:05:00,1,28163179,190206
OK,21,87,962,21,2014-10-01T19:10:00,1,28163627,190206
OK,21,87,962,21,2014-10-01T19:15:00,0,28164076,190206
OK,21,87,962,21,2014-10-01T19:20:00,0,28164507,190206
OK,34,53,962,34,2014-10-01T19:25:00,1,28164956,190206
OK,36,50,962,36,2014-10-01T19:30:00,2,28165381,190206
OK,41,44,962,41,2014-10-01T19:35:00,2,28165829,190206
OK,88,20,962,88,2014-10-01T19:40:00,1,28166270,190206
OK,88,20,962,88,2014-10-01T19:45:00,1,28166632,190206
OK,88,20,962,88,2014-10-01T19:50:00,0,28167081,190206
OK,88,20,962,88,2014-10-01T19:55:00,0,28167510,190206
OK,88,20,962,88,2014-10-01T20:00:00,0,28167943,190206
OK,88,20,962,88,2014-10-01T20:05:00,0,28168392,190206
OK,88,20,962,88,2014-10-01T20:10:00,0,28168837,190206
OK,88,20,962,88,2014-10-01T20:15:00,0,28169286,190206
OK,88,20,962,88,2014-10-01T20:20:00,0,28169734,190206
OK,88,20,962,88,2014-10-01T20:25:00,0,28170160,190206
OK,88,20,962,88,2014-10-01T20:30:00,0,28170605,190206
OK,88,20,962,88,2014-10-01T20:35:00,0,28171053,190206
OK,88,20,962,88,2014-10-01T20:40:00,0,28171490,190206
OK,88,20,962,88,2014-10-01T20:45:00,0,28171936,190206
OK,88,20,962,88,2014-10-01T20:50:00,0,28172384,190206
OK,88,20,962,88,2014-10-01T20:55:00,0,28172830,190206
OK,88,20,962,88,2014-10-01T21:00:00,0,28173276,190206
OK,43,42,962,43,2014-10-01T21:05:00,1,28173725,190206
OK,43,42,962,43,2014-10-01T21:10:00,0,28174166,190206
OK,28,65,962,28,2014-10-01T21:15:00,1,28174615,190206
OK,28,65,962,28,2014-10-01T21:20:00,1,28175041,190206
OK,28,65,962,28,2014-10-01T21:25:00,0,28175437,190206
OK,28,65,962,28,2014-10-01T21:30:00,0,28175886,190206
OK,28,65,962,28,2014-10-01T21:35:00,0,28176335,190206
OK,28,65,962,28,2014-10-01T21:40:00,0,28176784,190206
OK,28,65,962,28,2014-10-01T21:45:00,0,28177140,190206
OK,28,65,962,28,2014-10-01T21:50:00,0,28177580,190206
OK,28,65,962,28,2014-10-01T21:55:00,0,28178026,190206
OK,28,65,962,28,2014-10-01T22:00:00,0,28178475,190206
OK,28,65,962,28,2014-10-01T22:05:00,0,28178922,190206
OK,28,65,962,28,2014-10-01T22:10:00,0,28179356,190206
OK,28,65,962,28,2014-10-01T22:15:00,0,28179799,190206
OK,28,65,962,28,2014-10-01T22:20:00,0,28180246,190206
OK,28,65,962,28,2014-10-01T22:25:00,0,28180644,190206
OK,28,65,962,28,2014-10-01T22:30:00,0,28181093,190206
OK,28,65,962,28,2014-10-01T22:35:00,0,28181517,190206
OK,28,65,962,28,2014-10-01T22:40:00,0,28181965,190206
OK,28,65,962,28,2014-10-01T22:45:00,0,28182412,190206
OK,28,65,962,28,2014-10-01T22:50:00,0,28182861,190206
OK,28,65,962,28,2014-10-01T22:55:00,0,28183278,190206
OK,28,65,962,28,2014-10-01T23:00:00,0,28183711,190206
OK,28,65,962,28,2014-10-01T23:05:00,0,28184156,190206
OK,28,65,962,28,2014-10-01T23:10:00,0,28184605,190206
OK,28,65,962,28,2014-10-01T23:15:00,0,28185040,190206
OK,28,65,962,28,2014-10-01T23:20:00,0,28185488,190206
OK,28,65,962,28,2014-10-01T23:25:00,0,28185919,190206
OK,28,65,962,28,2014-10-01T23:30:00,0,28186311,190206
OK,28,65,962,28,2014-10-01T23:40:00,0,28187158,190206
OK,28,65,962,28,2014-10-01T23:55:00,0,28188490,190206
OK,28,65,962,28,2014-10-02T00:05:00,0,28189375,190206
OK,28,65,962,28,2014-10-02T00:10:00,0,28189797,190206
OK,28,65,962,28,2014-10-02T00:15:00,0,28190246,190206
OK,28,65,962,28,2014-10-02T00:20:00,0,28190599,190206
OK,28,65,962,28,2014-10-02T00:30:00,0,28191497,190206
OK,28,65,962,28,2014-10-02T00:35:00,0,28191803,190206
OK,28,65,962,28,2014-10-02T00:40:00,0,28192252,190206
OK,28,65,962,28,2014-10-02T00:45:00,0,28192685,190206
OK,28,65,962,28,2014-10-02T00:50:00,0,28193129,190206
OK,28,65,962,28,2014-10-02T00:55:00,0,28193496,190206
OK,28,65,962,28,2014-10-02T01:05:00,0,28194394,190206
OK,28,65,962,28,2014-10-02T01:10:00,0,28194843,190206
OK,28,65,962,28,2014-10-02T01:15:00,0,28195080,190206
OK,28,65,962,28,2014-10-02T01:25:00,0,28195977,190206
OK,28,65,962,28,2014-10-02T01:30:00,0,28196264,190206
OK,28,65,962,28,2014-10-02T01:35:00,0,28196710,190206
OK,28,65,962,28,2014-10-02T01:40:00,0,28197133,190206
OK,28,65,962,28,2014-10-02T01:45:00,0,28197582,190206
OK,28,65,962,28,2014-10-02T01:50:00,0,28198030,190206
OK,28,65,962,28,2014-10-02T01:55:00,0,28198478,190206
OK,28,65,962,28,2014-10-02T02:00:00,0,28198927,190206
OK,28,65,962,28,2014-10-02T02:05:00,0,28199299,190206
OK,28,65,962,28,2014-10-02T02:10:00,0,28199741,190206
OK,28,65,962,28,2014-10-02T02:15:00,0,28200183,190206
OK,28,65,962,28,2014-10-02T02:20:00,0,28200626,190206
OK,28,65,962,28,2014-10-02T02:25:00,0,28201075,190206
OK,28,65,962,28,2014-10-02T02:30:00,0,28201506,190206
OK,28,65,962,28,2014-10-02T02:45:00,0,28202404,190206
OK,28,65,962,28,2014-10-02T02:50:00,0,28202846,190206
OK,28,65,962,28,2014-10-02T02:55:00,0,28203294,190206
OK,28,65,962,28,2014-10-02T03:00:00,0,28203729,190206
OK,28,65,962,28,2014-10-02T03:10:00,0,28204178,190206
OK,28,65,962,28,2014-10-02T03:25:00,0,28204627,190206
OK,28,65,962,28,2014-10-02T03:30:00,0,28205076,190206
OK,28,65,962,28,2014-10-02T03:35:00,0,28205504,190206
OK,28,65,962,28,2014-10-02T03:40:00,0,28205951,190206
OK,28,65,962,28,2014-10-02T03:45:00,0,28206334,190206
OK,28,65,962,28,2014-10-02T03:55:00,0,28207232,190206
OK,28,65,962,28,2014-10-02T04:00:00,0,28207652,190206
OK,28,65,962,28,2014-10-02T04:05:00,0,28208100,190206
OK,28,65,962,28,2014-10-02T04:10:00,0,28208527,190206
OK,28,65,962,28,2014-10-02T04:15:00,0,28208976,190206
OK,28,65,962,28,2014-10-02T04:20:00,0,28209414,190206
OK,28,65,962,28,2014-10-02T04:25:00,0,28209863,190206
OK,22,83,962,22,2014-10-02T04:30:00,2,28210286,190206
OK,21,87,962,21,2014-10-02T04:35:00,1,28210735,190206
OK,21,87,962,21,2014-10-02T04:40:00,0,28211160,190206
OK,21,87,962,21,2014-10-02T04:45:00,0,28211604,190206
OK,21,87,962,21,2014-10-02T04:50:00,0,28211982,190206
OK,23,79,962,23,2014-10-02T04:55:00,0,28212431,190206
OK,23,79,962,23,2014-10-02T05:00:00,0,28212860,190206
OK,23,79,962,23,2014-10-02T05:05:00,0,28213309,190206
OK,23,79,962,23,2014-10-02T05:10:00,0,28213747,190206
OK,23,79,962,23,2014-10-02T05:15:00,0,28214196,190206
OK,23,79,962,23,2014-10-02T05:20:00,0,28214609,190206
OK,37,49,962,37,2014-10-02T05:25:00,1,28215058,190206
OK,37,49,962,37,2014-10-02T05:30:00,0,28215474,190206
OK,37,49,962,37,2014-10-02T05:35:00,0,28215923,190206
OK,59,31,962,59,2014-10-02T05:40:00,2,28216263,190206
OK,59,31,962,59,2014-10-02T05:45:00,2,28216702,190206
OK,59,31,962,59,2014-10-02T05:50:00,0,28217149,190206
OK,140,13,962,140,2014-10-02T05:55:00,0,28217598,190206
OK,140,13,962,140,2014-10-02T06:00:00,0,28218037,190206
OK,51,35,962,51,2014-10-02T06:05:00,1,28218486,190206
OK,51,35,962,51,2014-10-02T06:10:00,1,28218906,190206
OK,113,16,962,113,2014-10-02T06:15:00,3,28219355,190206
OK,56,32,962,56,2014-10-02T06:20:00,3,28219728,190206
OK,56,32,962,56,2014-10-02T06:25:00,1,28220177,190206
OK,56,32,962,56,2014-10-02T06:30:00,3,28220611,190206
OK,56,32,962,56,2014-10-02T06:35:00,3,28221060,190206
OK,55,33,962,55,2014-10-02T06:40:00,1,28221441,190206
OK,57,32,962,57,2014-10-02T06:45:00,2,28221727,190206
OK,104,17,962,104,2014-10-02T07:00:00,1,28222321,190206
OK,103,17,962,103,2014-10-02T07:05:00,2,28222770,190206
OK,103,17,962,103,2014-10-02T07:10:00,2,28223201,190206
OK,103,17,962,103,2014-10-02T07:15:00,0,28223636,190206
OK,103,17,962,103,2014-10-02T07:20:00,0,28224084,190206
OK,94,19,962,94,2014-10-02T07:25:00,5,28224439,190206
OK,70,26,962,70,2014-10-02T07:30:00,3,28224888,190206
OK,48,38,962,48,2014-10-02T07:35:00,3,28225337,190206
OK,40,45,962,40,2014-10-02T07:40:00,2,28225659,190206
OK,29,63,962,29,2014-10-02T07:50:00,3,28226549,190206
OK,56,32,962,56,2014-10-02T07:55:00,3,28226998,190206
OK,66,27,962,66,2014-10-02T08:00:00,2,28227413,190206
OK,73,25,962,73,2014-10-02T08:05:00,5,28227862,190206
OK,67,27,962,67,2014-10-02T08:10:00,3,28228221,190206
OK,48,38,962,48,2014-10-02T08:20:00,0,28229080,190206
OK,48,38,962,48,2014-10-02T08:25:00,1,28229529,190206
OK,48,38,962,48,2014-10-02T08:30:00,0,28229879,190206
OK,49,37,962,49,2014-10-02T08:35:00,3,28230328,190206
OK,108,16,962,108,2014-10-02T08:40:00,0,28230694,190206
OK,108,16,962,108,2014-10-02T08:45:00,0,28231143,190206
OK,50,36,962,50,2014-10-02T08:50:00,6,28231566,190206
OK,64,28,962,64,2014-10-02T08:55:00,1,28232015,190206
OK,55,33,962,55,2014-10-02T09:00:00,3,28232357,190206
OK,52,35,962,52,2014-10-02T09:10:00,0,28232806,190206
OK,55,33,962,55,2014-10-02T09:15:00,3,28233255,190206
OK,123,14,962,123,2014-10-02T09:20:00,1,28233679,190206
OK,54,33,962,54,2014-10-02T09:25:00,3,28234128,190206
OK,51,35,962,51,2014-10-02T09:30:00,0,28234461,190206
OK,43,42,962,43,2014-10-02T09:40:00,0,28235337,190206
OK,62,29,962,62,2014-10-02T09:45:00,4,28235786,190206
OK,55,33,962,55,2014-10-02T09:50:00,2,28236229,190206
OK,56,32,962,56,2014-10-02T09:55:00,1,28236676,190206
OK,56,32,962,56,2014-10-02T10:00:00,0,28237079,190206
OK,56,32,962,56,2014-10-02T10:05:00,0,28237527,190206
OK,64,28,962,64,2014-10-02T10:10:00,8,28237975,190206
OK,71,25,962,71,2014-10-02T10:15:00,6,28238422,190206
OK,58,31,962,58,2014-10-02T10:20:00,6,28238863,190206
OK,42,43,962,42,2014-10-02T10:25:00,2,28239312,190206
OK,20,91,962,20,2014-10-02T10:30:00,0,28239742,190206
OK,44,41,962,44,2014-10-02T10:35:00,5,28240191,190206
OK,44,41,962,44,2014-10-02T10:40:00,5,28240635,190206
OK,44,41,962,44,2014-10-02T10:45:00,1,28241084,190206
OK,44,41,962,44,2014-10-02T10:50:00,0,28241516,190206
OK,39,46,962,39,2014-10-02T10:55:00,4,28241964,190206
OK,45,40,962,45,2014-10-02T11:00:00,2,28242360,190206
OK,41,44,962,41,2014-10-02T11:05:00,0,28242809,190206
OK,49,37,962,49,2014-10-02T11:10:00,7,28243258,190206
OK,54,33,962,54,2014-10-02T11:15:00,4,28243586,190206
OK,50,36,962,50,2014-10-02T11:20:00,2,28244021,190206
OK,51,35,962,51,2014-10-02T11:25:00,1,28244450,190206
OK,51,35,962,51,2014-10-02T11:30:00,0,28244899,190206
OK,44,41,962,44,2014-10-02T11:35:00,3,28245348,190206
OK,41,44,962,41,2014-10-02T11:40:00,1,28245754,190206
OK,41,44,962,41,2014-10-02T11:45:00,0,28246203,190206
OK,51,35,962,51,2014-10-02T11:50:00,2,28246640,190206
OK,50,36,962,50,2014-10-02T11:55:00,1,28247089,190206
OK,89,20,962,89,2014-10-02T12:00:00,2,28247535,190206
OK,89,20,962,89,2014-10-02T12:05:00,2,28247965,190206
OK,87,21,962,87,2014-10-02T12:10:00,0,28248414,190206
OK,55,33,962,55,2014-10-02T12:15:00,3,28248861,190206
OK,55,33,962,55,2014-10-02T12:20:00,3,28249289,190206
OK,46,39,962,46,2014-10-02T12:25:00,2,28249733,190206
OK,56,32,962,56,2014-10-02T12:30:00,1,28250152,190206
OK,23,79,962,23,2014-10-02T12:35:00,1,28250550,190206
OK,97,18,962,97,2014-10-02T13:20:00,10,28251875,190206
OK,43,42,962,43,2014-10-02T13:30:00,3,28252459,190206
OK,59,31,962,59,2014-10-02T13:35:00,1,28252901,190206
OK,59,31,962,59,2014-10-02T13:40:00,0,28253318,190206
OK,39,46,962,39,2014-10-02T13:45:00,4,28253767,190206
OK,41,44,962,41,2014-10-02T13:50:00,1,28254172,190206
OK,69,26,962,69,2014-10-02T13:55:00,8,28254493,190206
OK,40,45,962,40,2014-10-02T14:10:00,2,28255070,190206
OK,49,37,962,49,2014-10-02T14:15:00,3,28255519,190206
OK,49,37,962,49,2014-10-02T14:20:00,3,28255947,190206
OK,49,37,962,49,2014-10-02T14:25:00,0,28256396,190206
OK,119,15,962,119,2014-10-02T14:30:00,1,28256824,190206
OK,73,25,962,73,2014-10-02T14:35:00,2,28257273,190206
OK,89,20,962,89,2014-10-02T14:40:00,2,28257714,190206
OK,38,48,962,38,2014-10-02T14:45:00,1,28258162,190206
OK,28,65,962,28,2014-10-02T14:50:00,2,28258595,190206
OK,18,101,962,18,2014-10-02T14:55:00,1,28259041,190206
OK,18,101,962,18,2014-10-02T15:00:00,0,28259490,190206
OK,18,101,962,18,2014-10-02T15:05:00,0,28259937,190206
OK,57,32,962,57,2014-10-02T15:10:00,2,28260370,190206
OK,57,32,962,57,2014-10-02T15:15:00,2,28260819,190206
OK,70,26,962,70,2014-10-02T15:20:00,0,28261259,190206
OK,100,18,962,100,2014-10-02T15:25:00,3,28261641,190206
OK,130,14,962,130,2014-10-02T15:30:00,0,28262071,190206
OK,65,28,962,65,2014-10-02T15:40:00,1,28262964,190206
OK,37,49,962,37,2014-10-02T15:45:00,3,28263402,190206
OK,40,45,962,40,2014-10-02T15:50:00,2,28263843,190206
OK,23,79,962,23,2014-10-02T15:55:00,0,28264245,190206
OK,54,33,962,54,2014-10-02T16:00:00,4,28264694,190206
OK,54,33,962,54,2014-10-02T16:05:00,4,28265132,190206
OK,43,42,962,43,2014-10-02T16:10:00,3,28265572,190206
OK,43,42,962,43,2014-10-02T16:15:00,3,28265968,190206
OK,51,35,962,51,2014-10-02T16:20:00,1,28266417,190206
OK,51,35,962,51,2014-10-02T16:25:00,1,28266866,190206
OK,51,35,962,51,2014-10-02T16:30:00,0,28267189,190206